Location: Bovenkerk
(52.2915°N, 4.8336°E)
Time: 09:29:36
(UTC+00:00)

Cosmos 2219 Rocket - Pass Details

Date: 09 April 2020
Orbit: 829 x 845 km, 71.0° (Epoch: 24 May)

Event Time Altitude Azimuth Distance (km) Brightness Sun altitude
Rises 22:24:46 0° 328° (NNW) 3,392 6.6 -27.5°
Reaches altitude 10° 22:27:43 10° 343° (NNW) 2,453 5.6 -27.6°
Maximum altitude 22:32:11 24° 36° (NE) 1,683 4.0 -27.9°
Enters shadow 22:34:52 17° 73° (ENE) 1,991 4.1 -28.0°
